Simultaneous Nadir Overpasses (SNOs) Predictions

Prediction of SNOs between NOAA-19 and NPP Satellite Orbit:

Table of predicted SNOs for the next 14.0 days since TLE Epoch: 7/12/2013
Index Date (NOAA-19) Time (NOAA-19) Lat,Lon (NOAA-19) SZA (NOAA-19 ) Date (NPP) Time (NPP) Lat,Lon (NPP) SZA (NPP ) Distance(km) Time Diff (sec)
1 07/21/2013 16:37:43 80.94,-122.20 64.55 07/21/2013 16:38:51 80.93,-122.21 64.51 0.23 68
2 07/21/2013 17:28:50 -80.93, 45.10 115.46 07/21/2013 17:29:36 -80.93, 45.13 115.49 0.51 46
3 07/21/2013 18:19:46 80.92,-147.18 64.48 07/21/2013 18:20:20 80.92,-147.27 64.48 1.64 34
4 07/21/2013 19:10:52 -80.90, 20.48 115.58 07/21/2013 19:11:04 -80.90, 20.43 115.58 0.96 12
5 07/21/2013 20:01:48 80.88,-171.80 64.36 07/21/2013 20:01:48 80.89,-171.97 64.39 3.13 0
6 07/21/2013 20:52:55 -80.88, -4.51 115.65 07/21/2013 20:52:33 -80.89, -4.64 115.62 2.41 22
7 07/21/2013 21:43:52 80.88, 162.85 64.35 07/21/2013 21:43:17 80.87, 162.96 64.35 1.96 35
8 07/21/2013 22:34:58 -80.86, -29.50 115.71 07/21/2013 22:34:01 -80.85, -29.35 115.71 2.72 57




NCC Satellite Simultaneous Nadir Overpasses (SNOs) Prediction Service
